Regional Weather Roundup
Issued by NWS Northern Indiana

Home | Current Version | Previous Version | Graphics & Text | Print | Product List | Glossary On
Versions: 1 2 3 4 5 6 7 8 9 10 11 12 13 14 15 16 17 18 19 20 21 22 23 24 25 26 27 28 29 30 31 32 33 34 35 36 37 38 39 40 41 42 43 44 45 46 47 48 49 50
000
ASUS43 KIWX 040000
RWRIWX

KIWX WEATHER ROUNDUP
NATIONAL WEATHER SERVICE NORTHERN INDIANA
800 PM EDT TUE MAY 03 2016

NOTE: "FAIR" INDICATES FEW OR NO CLOUDS BELOW 12,000 FEET WITH NO
SIGNIFICANT WEATHER AND/OR OBSTRUCTIONS TO VISIBILITY.

* THESE STATIONS ARE NOT UNDER NWS QUALITY CONTROL. THEY ALSO MAY NOT
  REPORT WEATHER SUCH AS PRECIPITATION OR FOG.

INZ001>027-040100-
NORTHERN INDIANA

CITY           SKY/WX    TMP DP  RH WIND       PRES   REMARKS
GARY*          MOCLDY    66  45  45 SW9       29.79F
SOUTH BEND     CLOUDY    61  39  44 SW6       29.80F
6HR MIN TEMP:  61; 6HR MAX TEMP:  65;

ELKHART*       MOCLDY    63  41  45 W9        29.80F
GOSHEN         PTCLDY    58  37  45 W9        29.80F
6HR MIN TEMP:  58; 6HR MAX TEMP:  64;

ANGOLA*        CLEAR     63  39  42 SW5       29.80F
FORT WAYNE     PTCLDY    58  44  60 SW8       29.83F
6HR MIN TEMP:  58; 6HR MAX TEMP:  63;

PERU/GRISSOM   PTCLDY    57  46  67 SW7       29.82F

$$
INZ028>050-040100-
CENTRAL INDIANA

CITY           SKY/WX    TMP DP  RH WIND       PRES   REMARKS
LAFAYETTE      CLOUDY    59  42  53 W3        29.83F
6HR MIN TEMP:  59; 6HR MAX TEMP:  65;

KOKOMO*        CLEAR     61  43  51 SW6       29.83F
6HR MIN TEMP:  57; 6HR MAX TEMP:  64;

MUNCIE*        CLEAR     59  43  55 W5        29.85F
6HR MIN TEMP:  56; 6HR MAX TEMP:  62; 6HR PCP: TRACE;

INDIANAPOLIS   PTCLDY    59  38  45 SW3       29.85F
6HR MIN TEMP:  55; 6HR MAX TEMP:  63; 6HR PCP: TRACE;


$$
MIZ043>046-050>051-056>058-064>065-071>073-077>080-040100-
SOUTHWEST LOWER MICHIGAN

CITY           SKY/WX    TMP DP  RH WIND       PRES   REMARKS
BATTLE CREEK   MOCLDY    59  33  37 W9        29.78F
6HR MIN TEMP:  59; 6HR MAX TEMP:  65;

BENTON HARBOR  CLOUDY    61  37  41 SW6       29.78F
6HR MIN TEMP:  60; 6HR MAX TEMP:  64;

COLDWATER*     CLEAR     59  33  37 W9        29.79S
6HR MIN TEMP:  59; 6HR MAX TEMP:  65;

HILLSDALE*     MOCLDY    60  30  31 SW6       29.79F
6HR MIN TEMP:  58; 6HR MAX TEMP:  62;

HOLLAND          N/A     60  37  42 SW12      29.76F
6HR MIN TEMP:  60; 6HR MAX TEMP:  64;

GRAND RAPIDS   MOCLDY    62  36  37 SW10      29.76F
6HR MIN TEMP:  62; 6HR MAX TEMP:  66;

KALAMAZOO      CLOUDY    61  33  35 W10       29.78F
6HR MIN TEMP:  61; 6HR MAX TEMP:  66;

STURGIS*       MOCLDY    60  33  37 W6        29.79S
6HR MIN TEMP:  60; 6HR MAX TEMP:  64;

THREE RIVERS*  CLOUDY    58  38  46 W6        29.80S
6HR MIN TEMP:  58; 6HR MAX TEMP:  66;


$$
OHZ001>008-015>018-024>025-040100-
NORTHWEST OHIO

CITY           SKY/WX    TMP DP  RH WIND       PRES   REMARKS
DEFIANCE       PTCLDY    60  40  47 SW7       29.82F
6HR MIN TEMP:  58; 6HR MAX TEMP:  63;

FINDLAY        PTCLDY    59  39  47 W8        29.81F
6HR MIN TEMP:  59; 6HR MAX TEMP:  64;

TOLEDO EXPRESS PTCLDY    60  38  43 SW9       29.80F
6HR MIN TEMP:  60; 6HR MAX TEMP:  64;

TOLEDO METCALF MOCLDY    59  43  55 S5        29.81F
6HR MIN TEMP:  57; 6HR MAX TEMP:  61;

LIMA           PTCLDY    55  46  71 SW8       29.83F
6HR MIN TEMP:  55; 6HR MAX TEMP:  59;


$$
AND FOR LAKE MICHIGAN COASTAL AND OPEN LAKE BUOY OBSERVATIONS

STATION/POSITION TEMP    WIND        PRES    VSBY  WAVE
                 AIR SEA DIR/SP/G                  HT/PER
                 (F)     (DEG/KT/KT) (MB)    (MI)  (FT/S)
CALUMET HARBOR    65                 1008.5F
MICHIGAN CITY     62     220/  8/  8   N/A
BURNS HARBOR      60     280/  8/ 10 1009.8F
SAINT JOSEPH      58     180/  9/ 12 1009.1F
SOUTH LAKE BUOY   46 42  170/ 14/ 14 1007.8          1/ 3
4 MI NW BRIDGMAN  54 51                N/A           0

$$
&&




USA.gov is the U.S. government's official web portal to all federal, state and local government web resources and services.